[Iaude] MPEC V97: 2016 VA4 [a=2.17,e=0.59,i=4.9,H=22.2]

mpec at si.edu mpec at si.edu
Thu Nov 10 13:20:04 EST 2016


M.P.E.C. 2016-V97                                Issued 2016 Nov. 10, 18:15 UT
 
     The Minor Planet Electronic Circulars contain information on unusual
         minor planets and routine data on comets.  They are published
    on behalf of Division F of the International Astronomical Union by the
          Minor Planet Center, Smithsonian Astrophysical Observatory,
                          Cambridge, MA 02138, U.S.A.

             Prepared using the Tamkin Foundation Computer Network

                              MPC at CFA.HARVARD.EDU
            URL http://www.minorplanetcenter.net/    ISSN 1523-6714


                                   2016 VA4
 
Observations:
     K16V04A* C2016 11 08.36530 04 12 38.46 +34 27 32.3          19.6 VqEV097G96
     K16V04A  C2016 11 08.36641 04 12 38.25 +34 27 28.3          19.5 VqEV097G96
     K16V04A  C2016 11 08.36752 04 12 38.13 +34 27 24.2          19.1 VqEV097G96
     K16V04A  C2016 11 08.37338 04 12 37.17 +34 27 02.7          19.3 VqEV097G96
     K16V04A  C2016 11 08.37563 04 12 36.81 +34 26 54.6          19.2 VqEV097G96
     K16V04A  C2016 11 08.37674 04 12 36.66 +34 26 50.6          19.3 VqEV097G96
     K16V04A  C2016 11 08.37788 04 12 36.52 +34 26 46.5          19.2 VqEV097G96
     K16V04A  C2016 11 08.42558 04 12 29.19 +34 23 52.2          18.7 VqEV097G96
     K16V04A  C2016 11 08.43160 04 12 28.24 +34 23 29.7          19.8 VqEV097G96
     K16V04A  C2016 11 08.43463 04 12 27.84 +34 23 18.7          19.3 VqEV097G96
     K16V04A KC2016 11 08.88850 04 11 32.55 +33 56 12.3          19.6 RqEV097K38
     K16V04A KC2016 11 08.90837 04 11 29.73 +33 55 04.4          19.6 RqEV097K38
     K16V04A KC2016 11 08.93044 04 11 26.58 +33 53 48.6          19.7 RqEV097K38
     K16V04A KC2016 11 09.28918904 10 39.87 +33 33 18.3          19.4 VuEV097H21
     K16V04A KC2016 11 09.29211104 10 39.46 +33 33 08.5          19.5 VuEV097H21
     K16V04A KC2016 11 09.29584004 10 38.92 +33 32 55.7          19.7 VuEV097H21
     K16V04A KC2016 11 09.34623 04 10 32.21 +33 30 04.2          19.9 RqEV097H36
     K16V04A KC2016 11 09.35600 04 10 30.70 +33 29 29.8          19.3 RqEV097H36
     K16V04A KC2016 11 09.35900 04 10 30.26 +33 29 20.5          19.5 RqEV097H36
     K16V04A  C2016 11 09.36631 04 10 30.05 +33 29 02.0          19.8 VqEV097G96
     K16V04A  C2016 11 09.36879 04 10 29.66 +33 28 53.2          20.0 VqEV097G96
     K16V04A  C2016 11 09.37128 04 10 29.29 +33 28 44.5          19.4 VqEV097G96
     K16V04A  C2016 11 09.37383 04 10 28.90 +33 28 36.0          19.6 VqEV097G96
     K16V04A  C2016 11 09.48822 04 10 12.84 +33 22 02.2          20.7 RoEV097926
     K16V04A  C2016 11 09.49497 04 10 11.89 +33 21 38.7          19.7 RoEV097926
     K16V04A  C2016 11 10.26029 04 08 45.15 +32 39 46.0          19.5 VqEV097G96
     K16V04A  C2016 11 10.26388 04 08 44.67 +32 39 34.4          19.7 VqEV097G96
     K16V04A  C2016 11 10.26585 04 08 44.38 +32 39 28.7          20.0 VqEV097G96
     K16V04A  C2016 11 10.26784 04 08 44.12 +32 39 22.3          20.0 VqEV097G96
     K16V04A  C2016 11 10.31347 04 08 37.98 +32 36 59.1          20.0 RoEV097926
     K16V04A  C2016 11 10.32020 04 08 37.07 +32 36 37.4          19.7 RoEV097926
     K16V04A  C2016 11 10.32691 04 08 36.14 +32 36 16.5          20.1 RoEV097926
 
Observer details:
926 Tenagra II Observatory.  Observers M. Schwartz, P. R. Holvorcem.  Measurer
    M. Schwartz.  0.81-m f/7 Ritchey-Chretien + CCD.
G96 Mt. Lemmon Survey.  Observers R. A. Kowalski, R. G. Matheny.  Measurers
    E. J. Christensen, D. C. Fuls, A. R. Gibbs, A. D. Grauer, J. A. Johnson,
    R. A. Kowalski, S. M. Larson, G. J. Leonard, R. G. Matheny, R. L. Seaman,
    F. C. Shelly.  1.5-m reflector + 10K CCD.
H21 Astronomical Research Observatory, Westfield.  Observer R. Holmes.
    Measurers S. Foglia, L. Buzzi, T. Linder, R. Holmes, T. Vorobjov.  0.61-m
    f/4.0 astrograph + CCD, 0.61-m f/4.5 astrograph + CCD.
H36 Sandlot Observatory, Scranton.  Observer G. Hug.  0.56-m reflector + CCD.
K38 M57 Observatory, Saltrio.  Observer G. Baj.  0.30-m f/8 Ritchey-Chretien
    + CCD.
 
Orbital elements:
2016 VA4                                                 Earth MOID = 0.0568 AU
Epoch 2016 July 31.0 TT = JDT 2457600.5                 MPC
M 345.73539              (2000.0)            P               Q
n   0.30892674     Peri.   89.86140     +0.94802335     +0.30745282
a   2.1672003      Node   252.23229     -0.31530298     +0.87295940
e   0.5900740      Incl.    4.93988     -0.04284580     +0.37870126
P   3.19           H   22.2           G   0.15           U   6
Residuals in seconds of arc
161108 G96  0.2+  0.0     161108 K38  0.1-  0.0     161109 G96  0.4-  0.1-
161108 G96  0.3-  0.0     161108 K38  0.2-  0.3-    161109 926  0.1+  0.6+
161108 G96  0.4+  0.0     161109 H21  0.0   0.2-    161109 926  0.4-  0.6+
161108 G96  0.3-  0.2-    161109 H21  0.1+  0.0     161110 G96  0.3+  0.2-
161108 G96  0.4-  0.1-    161109 H21  0.0   0.0     161110 G96  0.3+  0.5-
161108 G96  0.1-  0.1-    161109 H36  1.2+  0.2+    161110 G96  0.0   0.0
161108 G96  0.3+  0.0     161109 H36  0.3-  0.6-    161110 G96  0.1+  0.1-
161108 G96  0.3+  0.3+    161109 H36  0.5-  0.4+    161110 926  0.0   0.2+
161108 G96  0.2-  0.0     161109 G96  0.4+  0.2+    161110 926  0.0   0.1-
161108 G96  0.6+  0.1+    161109 G96  0.0   0.1-    161110 926  0.3-  0.3+
161108 K38  0.1+  0.0     161109 G96  0.1-  0.3-

Ephemeris:
2016 VA4                 a,e,i = 2.17, 0.59, 5                   q = 0.8884
Date    TT    R. A. (2000) Decl.     Delta      r     Elong.  Phase     V
2016 10 11    14 07 46.4 +49 02 47   0.08003 0.9578    57.7   118.3    21.3
...
2016 10 26    05 18 45.2 +56 32 23   0.09689 1.0488   122.1    53.4    19.2
...
2016 11 03    04 27 42.2 +40 56 27   0.1380  1.1068   144.2    31.6    19.5
...
2016 11 09    04 11 16.4 +33 50 02   0.1754  1.1532   156.3    20.2    19.7
2016 11 10    04 09 14.0 +32 53 54   0.1821  1.1611   158.0    18.6    19.8
2016 11 11    04 07 20.2 +32 01 09   0.1889  1.1691   159.8    17.0    19.8
...
2016 11 17    03 58 14.9 +27 43 04   0.2325  1.2177   169.1     8.8    20.1
...
2016 11 25    03 50 24.7 +23 49 53   0.2979  1.2844   175.7     3.3    20.4
...
2016 12 10    03 44 47.0 +19 51 05   0.4451  1.4119   160.3    13.6    22.0

A. U. Tomatic                (C) Copyright 2016 MPC           M.P.E.C. 2016-V97




More information about the Iaude mailing list